KINDAKUN POINT, BC current weather conditions

sailwx.info

Wind from 190 at 25 knots gusting 32

Air temperature 15.0° C
Dewpoint 15.0° C

Last reported at 2015-Aug-28 13:00 UTC.
Time now 2015-Aug-28 14:46 UTC

Location: N 53°19' W 132°46'.
View on Google Maps.

See reports from other nearby stations

  
Tides and Currents Weather Stations Pressure Air Temp Water Temp Dewpoint Dewpoint Depression Visibility Wind Speed Wind Dir Waves Ship Positions
date/time (UTC)wind fromknots sea level pressurealtimeterstation pressurevisibilityair tempwater tempwave heightnotes
2015-Aug-28 13:00 190 25 gusting 32 15.0
2015-Aug-28 12:00 190 22 gusting 27 16.0
2015-Aug-28 11:00 190 23 16.0
2015-Aug-28 10:00 200 25 gusting 30 16.0
2015-Aug-28 09:00 190 24 16.0
2015-Aug-28 08:00 180 20 gusting 27 16.0
2015-Aug-28 07:00 180 22 gusting 27 16.0
2015-Aug-28 06:00 180 17 16.0
2015-Aug-28 05:00 180 15 gusting 20 15.0
2015-Aug-28 04:00 180 13 16.0
2015-Aug-28 03:00 180 13 16.0
2015-Aug-28 02:00 180 13 16.0
2015-Aug-28 01:00 180 12 16.0
2015-Aug-28 00:00 170 12 16.0
2015-Aug-27 23:00 170 13 16.0
2015-Aug-27 22:00 180 11 16.0
2015-Aug-27 21:00 200 9 16.0
2015-Aug-27 20:00 180 10 16.0
2015-Aug-27 19:00 180 11 15.0
2015-Aug-27 18:00 200 10 15.0
2015-Aug-27 17:00 190 8 15.0
2015-Aug-27 16:00 190 6 14.0
2015-Aug-27 15:00 150 4 14.0
2015-Aug-27 14:00 140 7 14.0
2015-Aug-27 13:00 120 4 14.0
2015-Aug-27 12:00 140 5 14.0
2015-Aug-27 11:00 14.0
2015-Aug-27 10:00 140 4 14.0
2015-Aug-27 09:00 120 5 14.0
2015-Aug-27 08:00 140 1 15.0
2015-Aug-27 07:00 150 3 14.0
2015-Aug-27 06:00 130 6 15.0
2015-Aug-27 05:00 140 5 15.0
2015-Aug-27 04:00 010 2 16.0
2015-Aug-27 03:00 360 6 16.0
2015-Aug-27 02:00 360 5 17.0
2015-Aug-27 01:00 010 7 16.0
2015-Aug-27 00:00 010 6 16.0
2015-Aug-26 23:00 010 7 16.0
2015-Aug-26 22:00 320 2 18.0
2015-Aug-26 21:00 320 2 19.0
2015-Aug-26 20:00 310 6 17.0
2015-Aug-26 19:00 180 2 17.0
2015-Aug-26 18:00 100 2 18.0
2015-Aug-26 17:00 100 9 gusting 15 16.0
2015-Aug-26 16:00 15.0
2015-Aug-26 15:00 110 1 14.0
2015-Aug-26 14:00 020 2 14.0